Rehoboth Bay Milton DE USA current weather conditions

sailwx.info

Wind from 180 at 3 knots gusting 5

Air temperature 13.6° C
Dewpoint 1.0° C

Last reported at 2020-Feb-24 16:05 UTC.
Time now 2020-Feb-24 16:47 UTC

Location: N 38°41' W 075°15'.
View on Google Maps.

See reports from other nearby stations

  
Tides and Currents Weather Stations Pressure Air Temp Water Temp Dewpoint Dewpoint Depression Visibility Wind Speed Wind Dir Waves Ship Positions
date/time (UTC)wind fromknots sea level pressurealtimeterstation pressurevisibilityair tempwater tempwave heightnotes
2020-Feb-24 16:05 180 3 gusting 5 13.6
2020-Feb-24 16:00 216 3 gusting 4 13.4
2020-Feb-24 15:55 222 2 gusting 4 13.1
2020-Feb-24 15:50 229 3 gusting 5 12.9
2020-Feb-24 15:45 223 3 gusting 4 12.8
2020-Feb-24 15:40 199 3 gusting 5 12.6
2020-Feb-24 15:35 197 3 gusting 5 12.5
2020-Feb-24 15:30 234 3 gusting 5 12.3
2020-Feb-24 15:25 235 3 gusting 6 11.9
2020-Feb-24 15:20 236 4 gusting 4 11.7
2020-Feb-24 15:15 219 4 gusting 5 11.6
2020-Feb-24 15:10 215 3 gusting 4 11.6
2020-Feb-24 15:05 217 2 gusting 4 11.4
2020-Feb-24 15:00 196 3 gusting 4 11.1
2020-Feb-24 14:55 205 3 gusting 4 10.9
2020-Feb-24 14:50 220 4 gusting 5 11.0
2020-Feb-24 14:45 215 4 gusting 5 10.7
2020-Feb-24 14:40 211 4 gusting 5 10.6
2020-Feb-24 14:35 227 3 gusting 4 10.4
2020-Feb-24 14:30 236 4 gusting 6 10.1
2020-Feb-24 14:25 234 4 gusting 6 9.9
2020-Feb-24 14:20 249 5 gusting 7 9.8
2020-Feb-24 14:15 240 5 gusting 6 9.8
2020-Feb-24 14:10 233 3 gusting 4 9.3
2020-Feb-24 14:05 218 4 gusting 5 8.9
2020-Feb-24 14:00 223 4 gusting 5 8.6
2020-Feb-24 13:55 229 4 gusting 5 8.4
2020-Feb-24 13:50 228 4 gusting 5 8.4
2020-Feb-24 13:45 225 4 gusting 5 8.1
2020-Feb-24 13:40 222 4 gusting 5 7.9
2020-Feb-24 13:35 220 5 gusting 5 7.7
2020-Feb-24 13:30 225 3 gusting 4 7.4
2020-Feb-24 13:25 209 3 gusting 3 7.3
2020-Feb-24 13:20 218 3 gusting 4 7.1
2020-Feb-24 13:15 223 2 gusting 3 6.5
2020-Feb-24 13:10 218 2 gusting 3 5.9
2020-Feb-24 13:05 240 1 gusting 1 5.4
2020-Feb-24 13:00 219 0 gusting 1 4.9
2020-Feb-24 12:55 204 1 gusting 1 4.5
2020-Feb-24 12:50 208 0 gusting 0 4.4
2020-Feb-24 12:45 202 0 gusting 0 3.9
2020-Feb-24 12:40 187 0 gusting 0 3.1
2020-Feb-24 12:35 187 0 gusting 0 2.4
2020-Feb-24 12:30 222 0 gusting 0 2.0
2020-Feb-24 12:25 225 0 gusting 0 2.0
2020-Feb-24 12:20 1.9
2020-Feb-24 12:15 1.6
2020-Feb-24 12:10 1.1
2020-Feb-24 12:05 231 0 gusting 0 1.3
2020-Feb-24 12:00 231 0 gusting 1 1.4
2020-Feb-24 11:55 219 1 gusting 1 1.3
2020-Feb-24 11:50 208 1 gusting 1 1.3
2020-Feb-24 11:45 226 0 gusting 1 1.2
2020-Feb-24 11:40 1.2
2020-Feb-24 11:35 232 0 gusting 0 1.3
2020-Feb-24 11:30 232 0 gusting 0 1.6
2020-Feb-24 11:25 232 0 gusting 0 2.3
2020-Feb-24 11:20 232 0 gusting 0 2.7
2020-Feb-24 11:15 3.1
2020-Feb-24 11:10 232 0 gusting 0 3.1
2020-Feb-24 11:05 232 0 gusting 0 3.1
2020-Feb-24 11:00 233 0 gusting 1 3.6
2020-Feb-24 10:55 234 0 gusting 1 3.5
2020-Feb-24 10:50 226 0 gusting 1 3.3
2020-Feb-24 10:45 215 0 gusting 0 3.2
2020-Feb-24 10:40 215 0 gusting 0 3.0
2020-Feb-24 10:35 215 0 gusting 0 3.0
2020-Feb-24 10:30 214 1 gusting 1 3.1
2020-Feb-24 10:25 214 1 gusting 1 2.9
2020-Feb-24 10:20 219 1 gusting 1 2.9
2020-Feb-24 10:15 220 0 gusting 0 2.9
2020-Feb-24 10:10 220 0 gusting 1 2.9
2020-Feb-24 10:05 224 0 gusting 1 3.0
2020-Feb-24 10:00 225 1 gusting 1 3.1
2020-Feb-24 09:55 223 1 gusting 1 3.1
2020-Feb-24 09:50 220 1 gusting 1 3.0
2020-Feb-24 09:45 213 1 gusting 2 2.7
2020-Feb-24 09:40 218 2 gusting 2 2.4
2020-Feb-24 09:35 224 1 gusting 1 2.8
2020-Feb-24 09:30 206 0 gusting 1 3.2
2020-Feb-24 09:25 196 0 gusting 0 3.3
2020-Feb-24 09:20 196 0 gusting 0 3.0
2020-Feb-24 09:15 2.6
2020-Feb-24 09:10 2.8
2020-Feb-24 09:05 3.0
2020-Feb-24 09:00 3.2
2020-Feb-24 08:55 196 0 gusting 0 3.3
2020-Feb-24 08:50 196 0 gusting 0 3.1
2020-Feb-24 08:45 3.1
2020-Feb-24 08:40 182 0 gusting 0 3.1
2020-Feb-24 08:35 194 0 gusting 0 3.1
2020-Feb-24 08:30 194 0 gusting 0 3.0
2020-Feb-24 08:25 3.0
2020-Feb-24 08:20 208 0 gusting 1 3.3
2020-Feb-24 08:15 217 0 gusting 1 3.2
2020-Feb-24 08:10 209 0 gusting 0 3.4
2020-Feb-24 08:05 209 0 gusting 0 3.5
2020-Feb-24 08:00 205 0 gusting 0 3.4
2020-Feb-24 07:55 209 0 gusting 1 3.5
2020-Feb-24 07:50 211 1 gusting 1 3.7
2020-Feb-24 07:45 211 0 gusting 1 3.5
2020-Feb-24 07:40 213 0 gusting 0 3.4
2020-Feb-24 07:35 208 0 gusting 0 3.4
2020-Feb-24 07:30 213 0 gusting 0 3.3
2020-Feb-24 07:25 219 0 gusting 0 3.2
2020-Feb-24 07:20 219 0 gusting 0 3.0
2020-Feb-24 07:15 219 0 gusting 0 3.0
2020-Feb-24 07:10 211 0 gusting 0 3.0
2020-Feb-24 07:05 213 0 gusting 1 3.2
2020-Feb-24 07:00 219 0 gusting 1 3.2
2020-Feb-24 06:55 230 0 gusting 1 3.0
2020-Feb-24 06:50 221 0 gusting 0 3.0
2020-Feb-24 06:45 223 0 gusting 1 3.0
2020-Feb-24 06:40 3.0
2020-Feb-24 06:35 3.2
2020-Feb-24 06:30 3.2
2020-Feb-24 06:25 3.0
2020-Feb-24 06:20 2.7
2020-Feb-24 06:15 2.1
2020-Feb-24 06:10 1.4
2020-Feb-24 06:05 1.7
2020-Feb-24 06:00 2.5
2020-Feb-24 05:55 2.3
2020-Feb-24 05:50 2.4
2020-Feb-24 05:45 223 0 gusting 0 2.8
2020-Feb-24 05:40 222 0 gusting 0 2.9
2020-Feb-24 05:35 222 0 gusting 0 3.3
2020-Feb-24 05:30 222 0 gusting 1 3.4
2020-Feb-24 05:25 237 0 gusting 1 3.3
2020-Feb-24 05:20 245 0 gusting 0 3.3
2020-Feb-24 05:15 246 0 gusting 0 3.2
2020-Feb-24 05:10 246 0 gusting 1 3.0
2020-Feb-24 05:05 246 0 gusting 0 3.2
2020-Feb-24 05:00 3.2
2020-Feb-24 04:55 3.5
2020-Feb-24 04:50 245 0 gusting 0 4.0
2020-Feb-24 04:45 246 0 gusting 1 3.9
2020-Feb-24 04:40 245 1 gusting 1 3.9
2020-Feb-24 04:35 244 1 gusting 1 4.1
2020-Feb-24 04:30 246 1 gusting 1 4.2
2020-Feb-24 04:25 248 1 gusting 1 4.2
2020-Feb-24 04:20 243 1 gusting 1 4.2
2020-Feb-24 04:15 245 1 gusting 1 4.0
2020-Feb-24 04:10 241 1 gusting 1 3.9
2020-Feb-24 04:05 242 1 gusting 1 4.0
2020-Feb-24 04:00 245 1 gusting 2 3.9
2020-Feb-24 03:55 248 1 gusting 2 4.0
2020-Feb-24 03:50 239 2 gusting 2 4.2
2020-Feb-24 03:45 236 1 gusting 2 4.3
2020-Feb-24 03:40 238 1 gusting 1 4.2
2020-Feb-24 03:35 245 1 gusting 1 4.1
2020-Feb-24 03:30 250 1 gusting 1 4.0
2020-Feb-24 03:25 245 1 gusting 1 4.1
2020-Feb-24 03:20 243 1 gusting 1 3.7
2020-Feb-24 03:15 226 1 gusting 1 3.3
2020-Feb-24 03:10 211 0 gusting 1 3.4
2020-Feb-24 03:05 211 0 gusting 0 3.6
2020-Feb-24 03:00 211 0 gusting 0 3.8
2020-Feb-24 02:55 211 0 gusting 0 3.9
2020-Feb-24 02:50 211 0 gusting 0 4.0
2020-Feb-24 02:45 211 0 gusting 0 3.9
2020-Feb-24 02:40 227 0 gusting 1 3.8
2020-Feb-24 02:35 221 0 gusting 0 3.6
2020-Feb-24 02:30 217 0 gusting 0 3.3
2020-Feb-24 02:25 241 0 gusting 0 3.3
2020-Feb-24 02:20 240 0 gusting 1 3.5
2020-Feb-24 02:15 222 1 gusting 2 3.4
2020-Feb-24 02:10 235 1 gusting 2 3.5
2020-Feb-24 02:05 254 1 gusting 1 3.6
2020-Feb-24 02:00 241 0 gusting 1 3.4
2020-Feb-24 01:55 236 0 gusting 1 3.4
2020-Feb-24 01:50 247 1 gusting 2 3.4
2020-Feb-24 01:45 240 1 gusting 1 3.3
2020-Feb-24 01:40 226 1 gusting 1 3.3
2020-Feb-24 01:35 220 1 gusting 1 3.3
2020-Feb-24 01:30 224 1 gusting 2 3.2
2020-Feb-24 01:25 231 2 gusting 2 3.3
2020-Feb-24 01:20 234 2 gusting 3 3.4
2020-Feb-24 01:15 232 2 gusting 3 3.6
2020-Feb-24 01:10 222 2 gusting 3 3.7
2020-Feb-24 01:05 228 2 gusting 3 3.6
2020-Feb-24 01:00 224 1 gusting 2 3.9
2020-Feb-24 00:55 216 1 gusting 2 4.3
2020-Feb-24 00:50 198 1 gusting 1 4.5
2020-Feb-24 00:45 203 0 gusting 1 4.4
2020-Feb-24 00:40 4.4
2020-Feb-24 00:35 217 0 gusting 0 4.4
2020-Feb-24 00:30 169 0 gusting 1 4.5
2020-Feb-24 00:25 4.3
2020-Feb-24 00:20 4.2
2020-Feb-24 00:15 155 0 gusting 0 4.3
2020-Feb-24 00:10 158 0 gusting 1 4.4
2020-Feb-24 00:05 149 0 gusting 2 4.8
2020-Feb-24 00:00 131 0 gusting 1 5.1
2020-Feb-23 23:55 153 1 gusting 3 5.2
2020-Feb-23 23:50 146 1 gusting 1 5.3
2020-Feb-23 23:45 141 1 gusting 3 5.4
2020-Feb-23 23:40 140 1 gusting 2 5.4
2020-Feb-23 23:35 145 1 gusting 2 5.3
2020-Feb-23 23:30 128 0 gusting 1 5.5
2020-Feb-23 23:25 151 1 gusting 2 5.7
2020-Feb-23 23:20 142 2 gusting 3 5.9
2020-Feb-23 23:15 140 2 gusting 3 6.1
2020-Feb-23 23:10 154 2 gusting 2 6.1
2020-Feb-23 23:05 136 2 gusting 3 6.3
2020-Feb-23 23:00 149 3 gusting 3 6.5
2020-Feb-23 22:55 143 3 gusting 3 6.6
2020-Feb-23 22:50 137 2 gusting 4 7.0
2020-Feb-23 22:45 149 2 gusting 3 7.2
2020-Feb-23 22:40 149 1 gusting 2 7.6
2020-Feb-23 22:35 150 2 gusting 4 7.8
2020-Feb-23 22:30 141 3 gusting 5 8.1
2020-Feb-23 22:25 154 3 gusting 4 8.5
2020-Feb-23 22:20 164 2 gusting 4 8.8
2020-Feb-23 22:15 161 4 gusting 6 9.2
2020-Feb-23 22:10 130 2 gusting 4 9.5
2020-Feb-23 22:05 145 5 gusting 6 9.8
2020-Feb-23 22:00 145 4 gusting 5 10.1
2020-Feb-23 21:55 146 3 gusting 4 10.5
2020-Feb-23 21:50 148 3 gusting 5 10.6
2020-Feb-23 21:45 128 4 gusting 5 10.7
2020-Feb-23 21:40 153 5 gusting 6 11.0
2020-Feb-23 21:35 136 4 gusting 6 11.0
2020-Feb-23 21:30 117 4 gusting 6 11.0
2020-Feb-23 21:25 120 4 gusting 6 11.1
2020-Feb-23 21:20 113 4 gusting 6 11.2
2020-Feb-23 21:15 104 4 gusting 6 11.1
2020-Feb-23 21:10 114 4 gusting 5 11.2
2020-Feb-23 21:05 113 4 gusting 5 11.2
2020-Feb-23 21:00 096 5 gusting 7 11.2
2020-Feb-23 20:55 110 4 gusting 6 11.5
2020-Feb-23 20:50 102 5 gusting 7 11.3
2020-Feb-23 20:45 098 5 gusting 8 11.6
2020-Feb-23 20:40 099 5 gusting 7 11.7
2020-Feb-23 20:35 108 5 gusting 7 11.7
2020-Feb-23 20:30 110 6 gusting 8 11.5
2020-Feb-23 20:25 105 6 gusting 7 11.6
2020-Feb-23 20:20 110 4 gusting 5 12.0
2020-Feb-23 20:15 104 5 gusting 6 11.7
2020-Feb-23 20:10 105 5 gusting 6 11.6
2020-Feb-23 20:05 100 5 gusting 6 11.6
2020-Feb-23 20:00 110 5 gusting 7 11.7
2020-Feb-23 19:55 123 5 gusting 8 11.8
2020-Feb-23 19:50 103 5 gusting 6 11.9
2020-Feb-23 19:45 102 5 gusting 8 11.8
2020-Feb-23 19:40 104 5 gusting 7 11.7
2020-Feb-23 19:35 119 5 gusting 8 11.8
2020-Feb-23 19:30 117 4 gusting 6 11.8
2020-Feb-23 19:25 121 6 gusting 7 11.8
2020-Feb-23 19:20 116 5 gusting 6 11.9
2020-Feb-23 19:15 116 5 gusting 7 12.0
2020-Feb-23 19:10 137 5 gusting 7 11.9
2020-Feb-23 19:05 130 5 gusting 8 11.7
2020-Feb-23 19:00 133 5 gusting 7 11.8
2020-Feb-23 18:55 132 7 gusting 8 11.9
2020-Feb-23 18:50 123 5 gusting 7 11.8
2020-Feb-23 18:45 115 5 gusting 6 11.9
2020-Feb-23 18:40 120 6 gusting 8 12.1
2020-Feb-23 18:35 134 5 gusting 9 12.0
2020-Feb-23 18:30 117 5 gusting 7 11.8
2020-Feb-23 18:25 111 6 gusting 7 11.7
2020-Feb-23 18:20 130 6 gusting 8 11.9
2020-Feb-23 18:15 129 5 gusting 7 12.1
2020-Feb-23 18:10 115 5 gusting 8 11.9
2020-Feb-23 18:05 102 5 gusting 8 11.7
2020-Feb-23 18:00 121 5 gusting 8 12.0
2020-Feb-23 17:55 138 3 gusting 5 12.1
2020-Feb-23 17:50 128 5 gusting 8 11.8
2020-Feb-23 17:45 114 4 gusting 6 11.9
2020-Feb-23 17:40 135 5 gusting 7 11.9
2020-Feb-23 17:35 132 4 gusting 7 11.6
2020-Feb-23 17:30 118 5 gusting 6 11.8
2020-Feb-23 17:25 128 4 gusting 6 11.7
2020-Feb-23 17:20 127 4 gusting 6 11.7
2020-Feb-23 17:15 175 3 gusting 6 12.3
2020-Feb-23 17:10 156 4 gusting 5 11.9
2020-Feb-23 17:05 125 4 gusting 7 11.7
2020-Feb-23 17:00 146 4 gusting 7 11.6
2020-Feb-23 16:55 133 3 gusting 5 11.4
2020-Feb-23 16:50 107 3 gusting 5 11.6
2020-Feb-23 16:45 118 4 gusting 6 11.5
2020-Feb-23 16:40 125 4 gusting 6 11.0
2020-Feb-23 16:35 106 4 gusting 6 11.0
2020-Feb-23 16:30 109 3 gusting 6 11.0
2020-Feb-23 16:25 138 3 gusting 7 11.4
2020-Feb-23 16:20 136 3 gusting 5 11.2
2020-Feb-23 16:15 103 3 gusting 7 10.9
2020-Feb-23 16:10 085 4 gusting 6 11.0
2020-Feb-23 16:05 088 2 gusting 5 11.0
2020-Feb-23 16:00 128 1 gusting 3 11.0
2020-Feb-23 15:55 137 3 gusting 5 10.7
2020-Feb-23 15:50 091 3 gusting 5 10.5
2020-Feb-23 15:45 072 4 gusting 4 10.7
2020-Feb-23 15:40 029 2 gusting 4 10.5
2020-Feb-23 15:35 065 3 gusting 4 10.6
2020-Feb-23 15:30 100 2 gusting 3 10.1
2020-Feb-23 15:25 094 2 gusting 5 10.5
2020-Feb-23 15:20 148 1 gusting 2 10.0
2020-Feb-23 15:15 090 2 gusting 4 9.8
2020-Feb-23 15:10 094 2 gusting 3 9.7
2020-Feb-23 15:05 111 2 gusting 4 9.6
2020-Feb-23 15:00 106 2 gusting 3 9.3
2020-Feb-23 14:55 102 2 gusting 3 9.1
2020-Feb-23 14:50 095 1 gusting 2 9.1
2020-Feb-23 14:45 107 1 gusting 3 9.3
2020-Feb-23 14:40 120 0 gusting 1 8.9
2020-Feb-23 14:35 102 1 gusting 1 8.4
2020-Feb-23 14:30 081 0 gusting 1 8.2
2020-Feb-23 14:25 091 0 gusting 0 8.1
2020-Feb-23 14:20 123 0 gusting 0 7.8
2020-Feb-23 14:15 173 0 gusting 0 6.8
2020-Feb-23 14:10 168 0 gusting 0 6.3
2020-Feb-23 14:05 131 0 gusting 1 5.6
2020-Feb-23 14:00 159 1 gusting 1 5.0
2020-Feb-23 13:55 180 1 gusting 2 4.4
2020-Feb-23 13:50 195 1 gusting 1 3.4
2020-Feb-23 13:45 212 1 gusting 1 3.0
2020-Feb-23 13:40 214 0 gusting 1 3.2
2020-Feb-23 13:35 162 0 gusting 0 2.8
2020-Feb-23 13:30 179 0 gusting 1 1.6
2020-Feb-23 13:25 210 0 gusting 1 0.9
2020-Feb-23 13:20 209 0 gusting 1 0.5
2020-Feb-23 13:15 206 0 gusting 0 0.2
2020-Feb-23 13:10 214 0 gusting 0 -0.0
2020-Feb-23 13:05 223 0 gusting 0 -0.4
2020-Feb-23 13:00 210 0 gusting 0 -1.0
2020-Feb-23 12:55 218 0 gusting 0 -1.4
2020-Feb-23 12:50 193 0 gusting 0 -1.7
2020-Feb-23 12:45 164 0 gusting 0 -1.8
2020-Feb-23 12:40 174 0 gusting 1 -2.7
2020-Feb-23 12:35 194 0 gusting 1 -3.4
2020-Feb-23 12:30 192 0 gusting 1 -3.5
2020-Feb-23 12:25 192 0 gusting 0 -3.8
2020-Feb-23 12:20 192 0 gusting 0 -4.0
2020-Feb-23 12:15 -4.3
2020-Feb-23 12:10 193 0 gusting 0 -4.4
2020-Feb-23 12:05 193 0 gusting 0 -4.4
2020-Feb-23 12:00 -4.3
2020-Feb-23 11:55 -4.4
2020-Feb-23 11:50 -4.5
2020-Feb-23 11:45 -4.6
2020-Feb-23 11:40 -4.5
2020-Feb-23 11:35 -4.6
2020-Feb-23 11:30 -4.7
2020-Feb-23 11:25 -4.9
2020-Feb-23 11:20 193 0 gusting 0 -4.6
2020-Feb-23 11:15 -4.1
2020-Feb-23 11:10 -4.3
2020-Feb-23 11:05 -4.3
2020-Feb-23 11:00 -4.4
2020-Feb-23 10:55 193 0 gusting 0 -4.9
2020-Feb-23 10:50 193 0 gusting 0 -5.3
2020-Feb-23 10:45 193 0 gusting 0 -5.3
2020-Feb-23 10:40 193 0 gusting 0 -5.0
2020-Feb-23 10:35 193 0 gusting 1 -4.6
2020-Feb-23 10:30 198 1 gusting 2 -4.3
2020-Feb-23 10:25 202 2 gusting 2 -4.3
2020-Feb-23 10:20 204 1 gusting 2 -4.2
2020-Feb-23 10:15 208 0 gusting 0 -3.9
2020-Feb-23 10:10 201 0 gusting 1 -4.4
2020-Feb-23 10:05 182 0 gusting 0 -4.0
2020-Feb-23 10:00 182 0 gusting 1 -3.4
2020-Feb-23 09:55 196 0 gusting 0 -3.7
2020-Feb-23 09:50 197 0 gusting 0 -3.8
2020-Feb-23 09:45 208 0 gusting 0 -3.4
2020-Feb-23 09:40 222 1 gusting 2 -2.8
2020-Feb-23 09:35 203 1 gusting 2 -3.4
2020-Feb-23 09:30 198 1 gusting 2 -3.2
2020-Feb-23 09:25 213 1 gusting 2 -2.5
2020-Feb-23 09:20 242 1 gusting 3 -2.1
2020-Feb-23 09:15 259 1 gusting 2 -2.3
2020-Feb-23 09:10 255 1 gusting 2 -2.1
2020-Feb-23 09:05 266 1 gusting 2 -2.2
2020-Feb-23 09:00 250 1 gusting 2 -1.9
2020-Feb-23 08:55 242 2 gusting 3 -1.6
2020-Feb-23 08:50 249 2 gusting 2 -1.7
2020-Feb-23 08:45 236 2 gusting 3 -1.6
2020-Feb-23 08:40 236 2 gusting 3 -1.6
2020-Feb-23 08:35 233 2 gusting 2 -1.6
2020-Feb-23 08:30 230 2 gusting 2 -1.9
2020-Feb-23 08:25 230 2 gusting 2 -2.2
2020-Feb-23 08:20 227 2 gusting 2 -3.1
2020-Feb-23 08:15 208 2 gusting 2 -2.5
2020-Feb-23 08:10 195 1 gusting 2 -1.2
2020-Feb-23 08:05 214 1 gusting 1 -1.3
2020-Feb-23 08:00 243 0 gusting 1 -0.6
2020-Feb-23 07:55 246 1 gusting 2 -0.2
2020-Feb-23 07:50 259 2 gusting 2 -0.2
2020-Feb-23 07:45 261 2 gusting 3 -0.5
2020-Feb-23 07:40 275 1 gusting 2 -0.4
2020-Feb-23 07:35 247 1 gusting 2 -0.0
2020-Feb-23 07:30 246 1 gusting 2 -0.1
2020-Feb-23 07:25 251 1 gusting 2 -0.7
2020-Feb-23 07:20 240 1 gusting 1 -0.8
2020-Feb-23 07:15 238 1 gusting 2 -0.6
2020-Feb-23 07:10 229 2 gusting 2 -0.6
2020-Feb-23 07:05 226 2 gusting 2 -0.9
2020-Feb-23 07:00 225 1 gusting 2 -0.8
2020-Feb-23 06:55 228 2 gusting 2 -1.1
2020-Feb-23 06:50 226 2 gusting 2 -1.1
2020-Feb-23 06:45 225 2 gusting 2 -1.0
2020-Feb-23 06:40 222 2 gusting 2 -1.0
2020-Feb-23 06:35 224 2 gusting 2 -0.7
2020-Feb-23 06:30 220 2 gusting 2 -0.4
2020-Feb-23 06:25 220 2 gusting 2 -0.3
2020-Feb-23 06:20 223 2 gusting 2 -0.4
2020-Feb-23 06:15 230 2 gusting 2 -0.5
2020-Feb-23 06:10 229 2 gusting 3 -0.5
2020-Feb-23 06:05 229 2 gusting 2 -0.4
2020-Feb-23 06:00 230 2 gusting 3 -0.4
2020-Feb-23 05:55 230 2 gusting 3 -0.4
2020-Feb-23 05:50 228 2 gusting 3 -0.5
2020-Feb-23 05:45 229 2 gusting 3 -0.4
2020-Feb-23 05:40 230 2 gusting 2 -0.4
2020-Feb-23 05:35 235 2 gusting 3 -0.4
2020-Feb-23 05:30 232 2 gusting 2 -0.4
2020-Feb-23 05:25 232 2 gusting 3 -0.5
2020-Feb-23 05:20 233 3 gusting 3 -0.5
2020-Feb-23 05:15 229 2 gusting 3 -0.6
2020-Feb-23 05:10 226 2 gusting 3 -0.3
2020-Feb-23 05:05 219 2 gusting 3 0.2
2020-Feb-23 05:00 215 2 gusting 3 0.2
2020-Feb-23 04:55 219 2 gusting 3 0.1
2020-Feb-23 04:50 228 3 gusting 3 0.3
2020-Feb-23 04:45 232 3 gusting 3 -0.0
2020-Feb-23 04:40 228 2 gusting 3 0.0
2020-Feb-23 04:35 212 2 gusting 2 0.5
2020-Feb-23 04:30 214 2 gusting 3 0.4
2020-Feb-23 04:25 219 2 gusting 3 0.4
2020-Feb-23 04:20 222 3 gusting 3 0.6
2020-Feb-23 04:15 225 3 gusting 4 0.6
2020-Feb-23 04:10 229 3 gusting 3 0.5
2020-Feb-23 04:05 228 3 gusting 3 0.7
2020-Feb-23 04:00 226 3 gusting 3 1.0
2020-Feb-23 03:55 224 3 gusting 4 1.1
2020-Feb-23 03:50 227 3 gusting 3 1.1
2020-Feb-23 03:45 228 3 gusting 3 1.0
2020-Feb-23 03:40 229 3 gusting 4 1.2
2020-Feb-23 03:35 228 3 gusting 4 0.9
2020-Feb-23 03:30 224 3 gusting 4 1.0
2020-Feb-23 03:25 227 3 gusting 6 0.5
2020-Feb-23 03:20 231 2 gusting 2 0.6
2020-Feb-23 03:15 217 2 gusting 2 0.4
2020-Feb-23 03:10 217 2 gusting 2 0.3
2020-Feb-23 03:05 221 1 gusting 2 0.3
2020-Feb-23 03:00 222 1 gusting 1 0.5
2020-Feb-23 02:55 211 1 gusting 1 0.8
2020-Feb-23 02:50 204 1 gusting 2 0.9
2020-Feb-23 02:45 205 1 gusting 2 0.7
2020-Feb-23 02:40 216 1 gusting 1 0.3
2020-Feb-23 02:35 222 0 gusting 1 0.5
2020-Feb-23 02:30 217 0 gusting 2 0.3
2020-Feb-23 02:25 216 0 gusting 0 0.8
2020-Feb-23 02:20 207 1 gusting 1 1.1
2020-Feb-23 02:15 197 0 gusting 1 1.0
2020-Feb-23 02:10 199 1 gusting 1 1.1
2020-Feb-23 02:05 213 2 gusting 2 1.0
2020-Feb-23 02:00 228 1 gusting 2 0.4
2020-Feb-23 01:55 228 1 gusting 1 0.9
2020-Feb-23 01:50 216 1 gusting 1 1.4
2020-Feb-23 01:45 205 1 gusting 1 1.2
2020-Feb-23 01:40 210 1 gusting 1 1.1
2020-Feb-23 01:35 213 2 gusting 2 1.2
2020-Feb-23 01:30 217 2 gusting 3 1.3
2020-Feb-23 01:25 225 1 gusting 2 1.1
2020-Feb-23 01:20 238 0 gusting 1 1.2
2020-Feb-23 01:15 228 0 gusting 1 1.3
2020-Feb-23 01:10 194 0 gusting 1 1.6
2020-Feb-23 01:05 200 0 gusting 0 1.1
2020-Feb-23 01:00 200 0 gusting 0 0.9
2020-Feb-23 00:55 200 0 gusting 1 1.4
2020-Feb-23 00:50 192 0 gusting 1 1.6
2020-Feb-23 00:45 186 1 gusting 1 1.6
2020-Feb-23 00:40 196 1 gusting 1 1.8
2020-Feb-23 00:35 204 1 gusting 1 2.4
2020-Feb-23 00:30 207 1 gusting 1 2.3
2020-Feb-23 00:25 223 0 gusting 0 2.6
2020-Feb-23 00:20 223 0 gusting 0 2.7
2020-Feb-23 00:15 223 0 gusting 1 2.4
2020-Feb-23 00:10 223 1 gusting 1 2.5
2020-Feb-23 00:05 225 1 gusting 1 2.5
2020-Feb-23 00:00 223 1 gusting 2 2.7
2020-Feb-22 23:55 233 1 gusting 1 2.5
2020-Feb-22 23:50 240 1 gusting 1 2.5
2020-Feb-22 23:45 224 0 gusting 0 2.3
2020-Feb-22 23:40 213 0 gusting 1 2.5
2020-Feb-22 23:35 207 1 gusting 2 3.4
2020-Feb-22 23:30 224 1 gusting 2 3.8
2020-Feb-22 23:25 238 1 gusting 1 4.0
2020-Feb-22 23:20 233 1 gusting 1 4.4
2020-Feb-22 23:15 231 1 gusting 2 4.6
2020-Feb-22 23:10 233 2 gusting 2 4.4
2020-Feb-22 23:05 229 1 gusting 2 4.1
2020-Feb-22 23:00 225 2 gusting 2 4.0
2020-Feb-22 22:55 203 3 gusting 3 4.8
2020-Feb-22 22:50 212 3 gusting 3 5.7
2020-Feb-22 22:45 232 3 gusting 4 6.1
2020-Feb-22 22:40 237 5 gusting 8 6.4
2020-Feb-22 22:35 225 4 gusting 6 6.4
2020-Feb-22 22:30 227 5 gusting 7 6.9
2020-Feb-22 22:25 226 5 gusting 7 7.1
2020-Feb-22 22:20 227 6 gusting 7 7.4
2020-Feb-22 22:15 232 6 gusting 9 7.7
2020-Feb-22 22:10 238 7 gusting 10 8.0
2020-Feb-22 22:05 234 6 gusting 9 8.3
2020-Feb-22 22:00 240 6 gusting 8 8.4
2020-Feb-22 21:55 225 7 gusting 9 8.5
2020-Feb-22 21:50 229 8 gusting 9 8.7
2020-Feb-22 21:45 230 7 gusting 10 8.9
2020-Feb-22 21:40 230 7 gusting 10 9.0
2020-Feb-22 21:35 231 8 gusting 10 9.1
2020-Feb-22 21:30 231 7 gusting 11 9.3
2020-Feb-22 21:25 229 7 gusting 9 9.6
2020-Feb-22 21:20 247 7 gusting 8 9.9
2020-Feb-22 21:15 245 5 gusting 7 9.8
2020-Feb-22 21:10 278 7 gusting 8 9.8
2020-Feb-22 21:05 267 7 gusting 11 9.9
2020-Feb-22 21:00 253 6 gusting 8 9.9
2020-Feb-22 20:55 270 5 gusting 7 10.1
2020-Feb-22 20:50 242 6 gusting 10 9.9
2020-Feb-22 20:45 260 6 gusting 10 10.0
2020-Feb-22 20:40 243 7 gusting 9 9.9
2020-Feb-22 20:35 275 7 gusting 11 9.9
2020-Feb-22 20:30 264 7 gusting 11 9.8
2020-Feb-22 20:25 247 8 gusting 11 9.9
2020-Feb-22 20:20 253 7 gusting 10 9.8
2020-Feb-22 20:15 272 9 gusting 13 9.7
2020-Feb-22 20:10 257 6 gusting 9 9.7
2020-Feb-22 20:05 268 8 gusting 11 9.5
2020-Feb-22 20:00 268 8 gusting 12 9.7
2020-Feb-22 19:55 261 7 gusting 9 9.9
2020-Feb-22 19:50 251 6 gusting 8 9.8
2020-Feb-22 19:45 240 8 gusting 12 9.8
2020-Feb-22 19:40 252 7 gusting 11 9.9
2020-Feb-22 19:35 240 6 gusting 10 9.9
2020-Feb-22 19:30 263 7 gusting 10 9.6
2020-Feb-22 19:25 235 10 gusting 14 9.6
2020-Feb-22 19:20 226 9 gusting 12 9.7
2020-Feb-22 19:15 236 8 gusting 12 9.7
2020-Feb-22 19:10 244 8 gusting 11 9.6
2020-Feb-22 19:05 247 9 gusting 12 9.4
2020-Feb-22 19:00 221 9 gusting 12 9.5
2020-Feb-22 18:55 243 8 gusting 11 9.7
2020-Feb-22 18:50 228 9 gusting 11 9.4
2020-Feb-22 18:45 263 6 gusting 9 9.3
2020-Feb-22 18:40 260 7 gusting 10 9.2
2020-Feb-22 18:35 224 8 gusting 11 9.1
2020-Feb-22 18:30 219 7 gusting 11 9.0
2020-Feb-22 18:25 235 6 gusting 8 8.8
2020-Feb-22 18:20 250 7 gusting 9 8.8
2020-Feb-22 18:15 250 7 gusting 11 9.0
2020-Feb-22 18:10 236 6 gusting 9 8.9
2020-Feb-22 18:05 262 6 gusting 9 8.8
2020-Feb-22 18:00 260 5 gusting 10 8.5
2020-Feb-22 17:55 259 8 gusting 10 8.5
2020-Feb-22 17:50 255 5 gusting 8 8.7
2020-Feb-22 17:45 252 7 gusting 13 8.4
2020-Feb-22 17:40 257 6 gusting 8 8.1
2020-Feb-22 17:35 267 7 gusting 12 8.4
2020-Feb-22 17:30 271 6 gusting 10 8.3
2020-Feb-22 17:25 233 7 gusting 10 8.0
2020-Feb-22 17:20 241 6 gusting 9 8.2
2020-Feb-22 17:15 276 6 gusting 9 7.9
2020-Feb-22 17:10 254 7 gusting 11 7.9
2020-Feb-22 17:05 268 6 gusting 9 7.9
2020-Feb-22 17:00 261 6 gusting 9 7.8
2020-Feb-22 16:55 271 6 gusting 10 7.5
2020-Feb-22 16:50 265 5 gusting 8 7.6
2020-Feb-22 16:45 260 7 gusting 10 6.9
2020-Feb-22 16:40 244 8 gusting 10 6.9
2020-Feb-22 16:35 306 6 gusting 12 6.8
2020-Feb-22 16:30 281 6 gusting 10 6.7
2020-Feb-22 16:25 249 5 gusting 9 6.5
2020-Feb-22 16:20 255 8 gusting 11 6.4
2020-Feb-22 16:15 249 6 gusting 9 6.5
2020-Feb-22 16:10 240 8 gusting 10 6.4
2020-Feb-22 16:05 281 7 gusting 9 6.4
2020-Feb-22 16:00 288 5 gusting 8 6.4